Location: Caualo
(45.5667°N, 10.8667°E)
Time: 10:57:42
(UTC+00:00)

In-Cosmos 22 Rocket - Pass Details

Date: 10 October 2020
Orbit: 790 x 889 km, 81.2° (Epoch: 20 October)

Event Time Altitude Azimuth Distance (km) Brightness Sun altitude
Rises 19:01:20 0° 355° (N) 3,308 7.6 -25.4°
Reaches altitude 10° 19:03:54 10° 4° (N) 2,368 6.7 -25.9°
Enters shadow 19:06:29 25° 24° (NNE) 1,557 5.5 -26.3°
